Location: Glendale
(37.4556°N, 88.6714°W)
Time: 12:02:03
(UTC+00:00)

Meteor 2-11 Rocket - Pass Details

Date: 08 December 2019
Orbit: 939 x 957 km, 82.5° (Epoch: 25 January)

Event Time Altitude Azimuth Distance (km) Brightness Sun altitude
Rises 10:46:27 0° 192° (SSW) 3,590 7.5 -25.1°
Reaches altitude 10° 10:48:56 10° 194° (SSW) 2,651 6.7 -24.6°
Maximum altitude 10:54:58 70° 278° (W) 1,003 4.3 -23.4°
Drops below altitude 10° 11:01:05 10° 2° (N) 2,679 6.7 -22.3°
Sets 11:03:36 0° 5° (N) 3,631 7.4 -21.8°
